This is the latest recevied weather packets stored in our database for station/object KB7KFC-3. If no packets are shown the sender has not sent any weather packets the latest 10 day(s).
| Time | Temp. | Humidity | Pressure | Rain* | Wind** | Luminosity | Snow |
|---|---|---|---|---|---|---|---|
| 1778172004 | 27.22° C | 22% | 1014.6 hPa | 0 mm | - | - | - |
| 1778171825 | 26.67° C | 24% | 1014.6 hPa | 0 mm | - | - | - |
| 1778171645 | 26.11° C | 23% | 1014.5 hPa | 0 mm | - | - | - |
| 1778171465 | 26.67° C | 24% | 1014.6 hPa | 0 mm | - | - | - |
| 1778171284 | 26.11° C | 26% | 1014.6 hPa | 0 mm | - | - | - |
| 1778171105 | 26.11° C | 28% | 1014.6 hPa | 0 mm | - | - | - |
| 1778170924 | 25.56° C | 25% | 1014.6 hPa | 0 mm | - | - | - |
| 1778170745 | 25.56° C | 25% | 1014.6 hPa | 0 mm | - | - | - |
| 1778170565 | 25° C | 26% | 1014.8 hPa | 0 mm | - | - | - |
| 1778170385 | 25° C | 27% | 1014.8 hPa | 0 mm | - | - | - |
| 1778170204 | 25° C | 28% | 1014.8 hPa | 0 mm | - | - | - |
| 1778170025 | 25° C | 29% | 1014.8 hPa | 0 mm | - | - | - |
| 1778169844 | 25° C | 33% | 1014.9 hPa | 0 mm | - | - | - |
| 1778169665 | 24.44° C | 29% | 1014.9 hPa | 0 mm | - | - | - |
| 1778169485 | 24.44° C | 31% | 1014.9 hPa | 0 mm | - | - | - |
| 1778169305 | 23.89° C | 28% | 1014.9 hPa | 0 mm | - | - | - |
| 1778169124 | 23.89° C | 32% | 1014.9 hPa | 0 mm | - | - | - |
| 1778168944 | 23.89° C | 28% | 1014.9 hPa | 0 mm | - | - | - |
| 1778168765 | 23.89° C | 29% | 1015 hPa | 0 mm | - | - | - |
| 1778168584 | 23.89° C | 30% | 1014.9 hPa | 0 mm | - | - | - |
| 1778168405 | 23.89° C | 29% | 1014.9 hPa | 0 mm | - | - | - |
| 1778168224 | 23.89° C | 29% | 1014.9 hPa | 0 mm | - | - | - |
| 1778168045 | 23.33° C | 30% | 1015 hPa | 0 mm | - | - | - |
| 1778167865 | 23.33° C | 31% | 1014.9 hPa | 0 mm | - | - | - |
| 1778167685 | 22.78° C | 30% | 1014.9 hPa | 0 mm | - | - | - |
* Rain latest hour (hover to see other rain measurements)
** Current wind speed in m/s (hover to see current wind gust speed)